Skip Page Navigation
NASA JPL Caltech
NASA Logo - Jet Propulsion Laboratory + View the NASA Portal
+ Center for Near-Earth Object Studies
JPL Home Earth Solar System Stars & Galaxies Technology
JPL Solar System Dynamics
BODIES ORBITS EPHEMERIDES TOOLS PHYSICAL DATA DISCOVERY FAQ SITE MAP
JPL Small-Body Database Browser
Search: [ help ]  
183165 (2002 SU23)
Classification: Main-belt Asteroid          SPK-ID: 2183165
Ephemeris | Orbit Diagram | Orbital Elements | Mission Design | Physical Parameters | Discovery Circumstances ]

[ show orbit diagram ]
Orbital Elements at Epoch 2459000.5 (2020-May-31.0) TDB
Reference: JPL 19 (heliocentric ecliptic J2000)
 Element Value Uncertainty (1-sigma)   Units 
e .1840970455384777 4.2418e-08  
a 2.194671537112605 9.8631e-09 au
q 1.790638991202785 9.2467e-08 au
i 5.434293856762968 5.9774e-06 deg
node 197.4308749909975 5.0627e-05 deg
peri 81.56516612160175 5.3388e-05 deg
M 217.559718333432 1.8037e-05 deg
tp 2459470.375766102975
(2021-Sep-12.87576610)
6.0768e-05 TDB
period 1187.55224166882
3.25
8.0055e-06
2.192e-08
d
yr
n .3031445585030484 2.0436e-09 deg/d
Q 2.598704083022425 1.1679e-08 au
  Orbit Determination Parameters
   # obs. used (total)      373  
   data-arc span      7527 days (20.61 yr)  
   first obs. used      1998-03-29  
   last obs. used      2018-11-06  
   planetary ephem.      DE431  
   SB-pert. ephem.      SB431-N16  
   condition code      0  
   norm. resid. RMS      .6748  
   source      ORB  
   producer      Otto Matic  
   solution date      2019-Jul-13 17:01:59  

Additional Information
 Earth MOID = .784436 au 
 Jupiter MOID = 2.53924 au 
 T_jup = 3.642 
[ show covariance matrix ]

Ephemeris | Orbit Diagram | Orbital Elements | Mission Design | Physical Parameters | Discovery Circumstances ]

Physical Parameter Table
Parameter Symbol Value Units Sigma Reference Notes
absolute magnitude H 16.7   n/a MPO454260  

183165 (2002 SU23)          Discovered 2002-Sep-27 by LONEOS at Anderson Mesa
Reference: 20080420/Numbers.arcLast Updated: 2008-04-23
Ephemeris | Orbit Diagram | Orbital Elements | Mission Design | Physical Parameters | Discovery Circumstances ]
ABOUT SSD CREDITS/AWARDS PRIVACY/COPYRIGHT GLOSSARY LINKS
FirstGov 2020-Aug-13 20:16 UT
(server date/time)  
NASA Home Page
Site Manager:   Ryan S. Park
Webmaster  Alan B. Chamberlin